Regional Weather Roundup
Issued by NWS

Home | Current Version | Previous Version | Graphics & Text | Print | Product List | Glossary On
Versions: 1 2 3 4 5 6 7 8 9 10 11 12 13 14 15 16 17 18 19 20 21 22 23 24 25 26 27 28 29 30 31 32 33 34 35 36 37 38 39 40 41 42 43 44 45 46 47 48 49 50
000
ASUS45 KBOU 020807
RWRCO

WEATHER ROUNDUP FOR COLORADO
NATIONAL WEATHER SERVICE DENVER/BOULDER CO
200 AM MDT TUE JUN 02 2015

NOTE: "FAIR" INDICATES FEW OR NO CLOUDS BELOW 12000 FEET WITH NO
SIGNIFICANT WEATHER AND/OR OBSTRUCTIONS TO VISIBILITY.

COZ001>005-013-030-031-020900-
...NORTHWEST COLORADO...

CITY           SKY/WX    TMP DP  RH WIND       PRES   REMARKS
CRAIG          PTCLDY    46  43  89 W5        30.04R
HAYDEN         CLEAR     52  39  62 E12       30.03S
MEEKER         CLEAR     50  40  68 CALM      30.04R
MOUNT WERNER   NOT AVBL
STEAMBOAT SPGS CLEAR     48  40  74 CALM      30.06F
WALDEN         PTCLDY    43  36  75 SE8       30.15F
$$

COZ006>008-011-020900-
...WEST CENTRAL VALLEYS...

CITY           SKY/WX    TMP DP  RH WIND       PRES   REMARKS
GRAND JUNCTION PTCLDY    62  30  29 E6        29.93R
MONTROSE       PTCLDY    61  28  28 SE8       30.05R
EAGLE          CLEAR     63  52  67 CALM      30.11S
RIFLE          CLEAR     54  41  61 CALM      30.00R
DELTA          PTCLDY    62  35  37 NE9       30.00S
NUCLA          PTCLDY    59  27  29 E10       30.09R
$$

COZ017>023-064>068-020900-
...SOUTHWEST COLORADO...

CITY           SKY/WX    TMP DP  RH WIND       PRES   REMARKS
DURANGO        MOCLDY    52  37  56 CALM      30.17R
CORTEZ         CLEAR     70  19  14 SW8       30.10R
PAGOSA SPRINGS MOCLDY    49  38  64 CALM      30.25F
TELLURIDE      PTCLDY    53  24  32 SE3       30.32S
WOLF CREEK PAS NOT AVBL
$$

COZ009-010-012-014-032>034-037-058>063-020900-
...CENTRAL COLORADO...

CITY           SKY/WX    TMP DP  RH WIND       PRES   REMARKS
ASPEN          CLEAR     53  35  50 S9        30.16S
BUENA VISTA    CLEAR     44  36  73 W5        30.23S
COPPER MTN     CLEAR     48  27  43 S23       30.46S
BERTHOUD PASS  FAIR      41  34  75 W20G33    30.48F
COTTONWOOD PAS NOT AVBL
GUNNISON       PTCLDY    46  36  66 CALM      30.25S
KREMMLING      CLEAR     48  41  76 CALM      30.15F
LEADVILLE      CLEAR     36  31  82 E6        30.32F
MONARCH PASS   CLEAR     43  32  65 S22G33    30.56F
SALIDA         CLEAR     53  38  58 CALM      30.28S
SUNLIGHT       CLEAR     46  23  39 CALM      30.38S
WILKERSON PASS CLEAR     43  32  65 SW8       30.43F
$$

COZ069>075-020900-
...SAN LUIS VALLEY/SANGRE DE CRISTO MOUNTAINS...

CITY           SKY/WX    TMP DP  RH WIND       PRES   REMARKS
ALAMOSA        MOCLDY    55  41  59 S9        30.23S
LA VETA PASS   PTCLDY   N/A N/A N/A MISG      30.37F
SAGUACHE       PTCLDY    46  41  81 NW9       30.26S
$$

COZ035-036-038>040-020900-
...NORTHERN COLORADO FRONT RANGE...

CITY           SKY/WX    TMP DP  RH WIND       PRES   REMARKS
DENVER INTL AP PTCLDY    60  46  59 S15       29.98F
DMNS CITY PARK NOT AVBL
AURORA         PTCLDY    62  44  51 S15       30.01F
FRONT RANGE AP PTCLDY    64  46  52 MISG      30.01F
ERIE MUNI ARPT PTCLDY    56  48  74 CALM      29.96F
BOULDER MUN AP PTCLDY    61  45  55 CALM      29.97F
CENTENNIAL     CLEAR     59  45  59 S8        30.04S
BROOMFIELD     PTCLDY    57  46  67 W6        30.00S
FORT COLLINS   PTCLDY    55  50  82 N9        30.00R
LONGMONT       PTCLDY    57  48  72 NW5       29.99S
$$

COZ041-046-047-076>085-087-088-020900-
...PIKES PEAK/PALMER DIVIDE AND SOUTHERN FOOTHILLS...

CITY           SKY/WX    TMP DP  RH WIND       PRES   REMARKS
COLO. SPRINGS  PTCLDY    59  45  59 SE3       30.10F
A. F. ACADEMY  CLEAR     55  44  67 N6        30.11S
ELLICOTT       CLEAR    N/A N/A N/A W5        30.09F
FALCON         CLEAR     56  44  65 CALM      30.15S
FORT CARSON    NOT AVBL
LIMON          MOCLDY    62  47  57 MISG      30.02F
MONUMENT HILL  CLEAR     54  43  66 MISG      30.12F
TRINIDAD       PTCLDY    56  47  71 W12       30.09F
$$

COZ042>045-048>051-090-091-020900-
...NORTHEAST COLORADO...

CITY           SKY/WX    TMP DP  RH WIND       PRES   REMARKS
GREELEY ARPT   PTCLDY    57  52  82 E7        29.96R
AKRON          MOCLDY    59  59 100 NE8       30.01R FOG
BURLINGTON     CLOUDY    63  56  78 NE10      30.01R
WRAY           CLOUDY    60  57  90 NE6       29.98S
STERLING       MOCLDY    61  55  82 E15G21    29.95F
HOLYOKE        NOT AVBL
FORT MORGAN    MOCLDY    57  -4   8 E8        29.96F
$$

COZ086-089-092>099-020900-
...SOUTHEAST COLORADO...

CITY           SKY/WX    TMP DP  RH WIND       PRES   REMARKS
PUEBLO         CLEAR     57  53  86 SE3       30.01F
LA JUNTA       PTCLDY    64  53  67 MISG      29.98S
LAMAR          MOCLDY    66  55  67 W3        29.93S
SPRINGFIELD      N/A     55  51  86 CALM      30.00F
$$



USA.gov is the U.S. government's official web portal to all federal, state and local government web resources and services.